Home   Weather   Bordeaux   Past weeks

Flag for France Past Weather in Bordeaux, Aquitaine, France — Yesterday and Last 2 Weeks

Now
68 °F

Passing clouds.


Feels Like: 68 °F
Forecast: 51 / 74 °F
Wind: 5 mph from East

Location: Bordeaux / Merignac

Current Time: Sep 26, 2016 at 12:38:19 PM

Latest Report: Sep 26, 2016 at 12:00 PM


Visibility: N/A

Pressure: 30.21 "Hg

Humidity: 46%

Dew Point: 46 °F

Location of BordeauxLocation

Past Weather in Bordeaux — Graph

°F

Bordeaux Temperature Yesterday

Maximum temperature yesterday: 73 °F (at 4:00 PM)
Minimum temperature yesterday: 59 °F (at 10:30 PM)
Average temperature yesterday: 66 °F

High & Low Weather Summary for the Past Weeks

 TemperatureHumidityPressure
High97 °F (Sep 12, 5:00 PM)100% (Sep 13, 7:00 PM)30.30 "Hg (Sep 13, 7:00 PM)
Low52 °F (Sep 15, 6:30 AM)25% (Sep 12, 5:00 PM)29.62 "Hg (Sep 13, 6:00 PM)
Average66 °F70%30.05 "Hg
* Reported Sep 11 11:00 AM — Sep 26 11:30 AM, Bordeaux, Weather by CustomWeather, © 2016

Note: Actual official high and low records may vary slightly from our data, if they occured in-between our weather recording intervals... More about our weather records

Advertising

Bordeaux Weather History for the Previous 24 Hours

Scroll right to see more
 ConditionsComfort  
Time TempWeatherWind HumidityBarometerVisibility
11:30 AM
Mon, Sep 26
66 °FPassing clouds.3 mph52%30.21 "HgN/A
11:00 AM64 °FPassing clouds.5 mph56%30.21 "HgN/A
10:30 AM63 °FSunny.2 mph59%30.21 "Hg10 mi
10:00 AM61 °FSunny.6 mph63%30.21 "Hg10 mi
9:30 AM57 °FSunny.3 mph72%30.21 "Hg10 mi
9:00 AM57 °FPassing clouds.5 mph72%30.21 "HgN/A
8:30 AM57 °FSunny.6 mph72%30.21 "Hg10 mi
8:00 AM57 °FPassing clouds.5 mph72%30.21 "HgN/A
7:30 AM57 °FPassing clouds.5 mph72%30.21 "HgN/A
7:00 AM57 °FClear.6 mph72%30.21 "Hg10 mi
6:30 AM55 °FClear.3 mph77%30.21 "Hg10 mi
6:00 AM57 °FClear.5 mph72%30.21 "Hg10 mi
5:30 AM55 °FClear.3 mph82%30.21 "Hg10 mi
5:00 AM55 °FClear.3 mph82%30.21 "Hg10 mi
4:30 AM55 °FClear.No wind82%30.24 "Hg10 mi
4:00 AM57 °FClear.3 mph77%30.24 "Hg10 mi
3:30 AM57 °FClear.6 mph77%30.24 "Hg10 mi
3:00 AM57 °FClear.2 mph77%30.24 "Hg10 mi
2:30 AM59 °FClear.3 mph72%30.24 "Hg10 mi
2:00 AM59 °FPassing clouds.5 mph72%30.24 "HgN/A
1:30 AM61 °FClear.5 mph68%30.24 "Hg10 mi
1:00 AM59 °FClear.2 mph72%30.24 "Hg10 mi
12:30 AM59 °FClear.No wind72%30.27 "Hg10 mi
12:00 AM59 °FClear.No wind72%30.24 "Hg10 mi
11:30 PM
Sun, Sep 25
59 °FClear.1 mph72%30.27 "Hg10 mi
11:00 PM59 °FClear.2 mph72%30.27 "Hg10 mi
10:30 PM59 °FClear.2 mph72%30.27 "Hg10 mi
10:00 PM61 °FClear.5 mph68%30.27 "Hg10 mi
9:30 PM61 °FPassing clouds.3 mph68%30.27 "HgN/A
9:00 PM63 °FClear.5 mph64%30.24 "Hg10 mi
8:30 PM63 °FClear.6 mph64%30.24 "Hg10 mi
8:00 PM64 °FClear.8 mph60%30.24 "Hg10 mi
7:30 PM68 °FSunny.9 mph53%30.24 "Hg10 mi
7:00 PM70 °FSunny.9 mph46%30.21 "Hg10 mi
6:30 PM72 °FSunny.10 mph38%30.21 "Hg10 mi
6:00 PM72 °FPassing clouds.12 mph38%30.21 "HgN/A
5:30 PM72 °FPassing clouds.14 mph38%30.21 "HgN/A
5:00 PM72 °FPassing clouds.14 mph38%30.21 "HgN/A
4:30 PM73 °FSunny.14 mph44%30.21 "Hg10 mi
4:00 PM73 °FPassing clouds.13 mph44%30.21 "HgN/A
3:30 PM72 °FScattered clouds.6 mph53%30.18 "HgN/A
3:00 PM72 °FBroken clouds.5 mph61%30.18 "HgN/A
2:30 PM72 °FBroken clouds.8 mph57%30.18 "HgN/A
2:00 PM70 °FOvercast.7 mph57%30.18 "HgN/A
1:30 PM68 °FMore clouds than sun.10 mph69%30.18 "HgN/A
1:00 PM68 °FMostly cloudy.9 mph64%30.18 "HgN/A
12:30 PM68 °FMore clouds than sun.8 mph69%30.15 "HgN/A
12:00 PM70 °FBroken clouds.10 mph60%30.15 "HgN/A
Weather by CustomWeather, © 2016

See weather overviewHow to use our weather pages